Location: Chuathbaluk
(61.5726°N, 159.2454°W)
Time: 12:14:01
(UTC+00:00)

N. Korean satellite - Pass Details

Date: 27 October 2020
Orbit: 453 x 503 km, 97.2° (Epoch: 04 December)

Event Time Altitude Azimuth Distance (km) Brightness Sun altitude
Rises 14:46:04 0° 29° (NNE) 2,498 10.8 -22.7°
Maximum altitude 14:50:27 10° 82° (E) 1,607 10.3 -22.2°
Drops below altitude 10° 14:51:15 - 95° (E) 1,641 10.3 -22.1°
Sets 14:54:48 0° 135° (SE) 2,466 10.6 -21.7°
